User: anonymous   Login
Location: Mahannah Oil Field
(37.4664°N, 96.6003°W)
Time: 14:15:32
(UTC+00:00)
Language:

Tiros 1 despin weight - Orbit

View from above orbital plane
View from above orbital plane
View from above satellite
View from above satellite

Ground track
Ground track

The orbit data is extracted from the following two-line orbital elements,

1 00115U 60002D   21024.82661906  .00000009  00000-0  28102-4 0  9998
2 00115  48.1667 289.6624 0033869 144.9490 215.3661 14.83686219224682
Epoch (UTC): 24 January 2021 19:50:19
Eccentricity: 0.0033869
inclination: 48.1667°
perigee height: 594 km
apogee height: 641 km
right ascension of ascending node: 289.6624°
argument of perigee: 144.9490°
revolutions per day: 14.83686219
mean anomaly at epoch: 215.3661°
orbit number at epoch: 22468

The dashed part of the orbit path shows where the satellite is in the earth's shadow,  

DLR